STARLINK-2509 (48318 NORAD) Tracking and Keplerian Element Data

This shows tracking and keplerian element data for the satellite.

Feedback or suggestion? Click here.




ElementValue
Catalog48318
NameSTARLINK-2509
Epoch Orbit1550
Epoch Day215.02103867
Epoch Year2021
RAAN81.9686
Inclination53.0495
Eccentricity0.0002055
Argument of Perigee91.6639
Mean Anonmoly268.4585
Mean Motion15.06395047
Decay Rate1.244E-05
L11 48318U 21036AU 21215.02103867 .00001244 00000-0 10241-3 0 9996
L22 48318 53.0495 81.9686 0002055 91.6639 268.4585 15.06395047 15505

Live tracking and technical data element details for STARLINK-2509 (NORAD 48318). STARLINK-2509 can be tracked NOW for your location showing map with azimuth and elevation plus other details from your city location.

Track the satellite on the map from your city or location and see movement details for azimuth, elevation, latitude, longitude, range, height, and movement on the map or in text.







IsCatalogInMostPopularTable: catalog: 48318, numindb: 39
Update: records affected: 1



GetName: 48318 STARLINK-2509

Hit Count: updated at: Tue, 03 Aug 2021 19:45:13 GMT